| time (UTC) | temp F | wind direction | speed MPH | gust MPH | rain 1hr in | rain 24hr in | rain mn in | humidity % | barometer mb |
| 20260505113048 | 63 | 143 | 7.0 | 12.0 | 0.02 | 0.02 | 0.02 | 65 | 1004.1 |
| 20260505111547 | 64 | 232 | 11.0 | 22.0 | 0.00 | 0.00 | 0.00 | 60 | 1005.2 |
| 20260505101542 | 63 | 204 | 3.0 | 13.0 | 0.00 | 0.00 | 0.00 | 57 | 1004.3 |
| 20260505100042 | 61 | 165 | 3.0 | 8.0 | 0.00 | 0.00 | 0.00 | 61 | 1004.1 |
| 20260505094533 | 60 | 235 | 2.0 | 7.0 | 0.00 | 0.00 | 0.00 | 61 | 1003.9 |
| 20260505093031 | 61 | 208 | 1.0 | 4.0 | 0.00 | 0.00 | 0.00 | 59 | 1003.9 |
| 20260505091534 | 62 | 163 | 1.0 | 5.0 | 0.00 | 0.00 | 0.00 | 57 | 1003.8 |
| 20260505090026 | 62 | 161 | 1.0 | 5.0 | 0.00 | 0.00 | 0.00 | 56 | 1003.6 |
| 20260505084526 | 62 | 119 | 0.0 | 3.0 | 0.00 | 0.00 | 0.00 | 56 | 1003.7 |
| 20260505083034 | 62 | 119 | 0.0 | 3.0 | 0.00 | 0.00 | 0.00 | 55 | 1003.6 |
| 20260505081523 | 63 | 119 | 0.0 | 3.0 | 0.00 | 0.00 | 0.00 | 54 | 1003.7 |
| 20260505080039 | 63 | 119 | 0.0 | 3.0 | 0.00 | 0.00 | 0.00 | 53 | 1003.8 |
| 20260505074519 | 63 | 119 | 1.0 | 6.0 | 0.00 | 0.00 | 0.00 | 52 | 1003.9 |
| 20260505073019 | 64 | 177 | 0.0 | 4.0 | 0.00 | 0.00 | 0.00 | 52 | 1003.8 |
| 20260505071523 | 64 | 146 | 1.0 | 4.0 | 0.00 | 0.00 | 0.00 | 51 | 1003.8 |
| 20260505070015 | 65 | 218 | 2.0 | 13.0 | 0.00 | 0.00 | 0.00 | 50 | 1003.9 |
| 20260505064512 | 65 | 215 | 5.0 | 12.0 | 0.00 | 0.00 | 0.00 | 49 | 1003.9 |
| 20260505063014 | 65 | 223 | 7.0 | 12.0 | 0.00 | 0.00 | 0.00 | 48 | 1003.9 |
| 20260505061511 | 65 | 189 | 8.0 | 16.0 | 0.00 | 0.00 | 0.00 | 48 | 1003.8 |
| 20260505060009 | 65 | 200 | 8.0 | 13.0 | 0.00 | 0.00 | 0.00 | 48 | 1004.0 |
| 20260505054506 | 65 | 204 | 7.0 | 13.0 | 0.00 | 0.00 | 0.00 | 48 | 1004.0 |
| 20260505053006 | 65 | 186 | 7.0 | 10.0 | 0.00 | 0.00 | 0.00 | 48 | 1004.1 |
| 20260505051502 | 65 | 176 | 6.0 | 15.0 | 0.00 | 0.00 | 0.00 | 47 | 1004.1 |
| 20260505041604 | 66 | 163 | 3.0 | 11.0 | 0.00 | 0.00 | 0.00 | 46 | 1004.0 |
| 20260505040050 | 66 | 198 | 6.0 | 11.0 | 0.00 | 0.00 | 0.00 | 46 | 1004.0 |
| 20260505034549 | 66 | 201 | 6.0 | 12.0 | 0.00 | 0.00 | 0.00 | 46 | 1003.8 |
| 20260505033049 | 66 | 229 | 5.0 | 10.0 | 0.00 | 0.00 | 0.00 | 45 | 1003.9 |
| 20260505031546 | 66 | 203 | 6.0 | 12.0 | 0.00 | 0.00 | 0.00 | 45 | 1004.0 |
| 20260505030055 | 66 | 173 | 6.0 | 12.0 | 0.00 | 0.00 | 0.00 | 45 | 1004.0 |
| 20260505024542 | 67 | 204 | 7.0 | 14.0 | 0.00 | 0.00 | 0.00 | 43 | 1004.1 |
| 20260505023041 | 67 | 193 | 11.0 | 17.0 | 0.00 | 0.00 | 0.00 | 43 | 1004.2 |
| 20260505021550 | 67 | 174 | 7.0 | 16.0 | 0.00 | 0.00 | 0.00 | 43 | 1004.3 |
| 20260505020051 | 67 | 182 | 6.0 | 12.0 | 0.00 | 0.00 | 0.00 | 42 | 1004.2 |
| 20260505014538 | 67 | 175 | 4.0 | 9.0 | 0.00 | 0.00 | 0.00 | 41 | 1004.1 |
| 20260505013040 | 68 | 191 | 5.0 | 12.0 | 0.00 | 0.00 | 0.00 | 40 | 1004.0 |
| 20260505011537 | 68 | 196 | 7.0 | 12.0 | 0.00 | 0.00 | 0.00 | 40 | 1003.9 |
| 20260505010054 | 69 | 198 | 5.0 | 14.0 | 0.00 | 0.00 | 0.00 | 39 | 1003.8 |
| 20260505004534 | 69 | 213 | 7.0 | 17.0 | 0.00 | 0.00 | 0.00 | 39 | 1003.7 |
| 20260505003040 | 69 | 202 | 2.0 | 10.0 | 0.00 | 0.00 | 0.00 | 38 | 1003.6 |
| 20260505001529 | 70 | 194 | 7.0 | 14.0 | 0.00 | 0.00 | 0.00 | 37 | 1003.5 |
| 20260505000031 | 70 | 224 | 6.0 | 14.0 | 0.00 | 0.00 | 0.00 | 37 | 1003.3 |
| 20260504234529 | 71 | 198 | 7.0 | 15.0 | 0.00 | 0.00 | 0.00 | 36 | 1003.3 |
| 20260504233029 | 71 | 166 | 6.0 | 15.0 | 0.00 | 0.00 | 0.00 | 36 | 1003.2 |
| 20260504231529 | 72 | 169 | 8.0 | 18.0 | 0.00 | 0.00 | 0.00 | 35 | 1003.2 |
| 20260504230024 | 72 | 193 | 7.0 | 12.0 | 0.00 | 0.00 | 0.00 | 34 | 1002.9 |
| 20260504224525 | 73 | 180 | 6.0 | 12.0 | 0.00 | 0.00 | 0.00 | 33 | 1003.0 |
| 20260504223023 | 73 | 204 | 7.0 | 13.0 | 0.00 | 0.00 | 0.00 | 33 | 1003.1 |
| 20260504221522 | 73 | 145 | 8.0 | 15.0 | 0.00 | 0.00 | 0.00 | 33 | 1002.9 |
| 20260504220017 | 73 | 219 | 8.0 | 17.0 | 0.00 | 0.00 | 0.00 | 32 | 1003.0 |
| 20260504214524 | 74 | 181 | 7.0 | 20.0 | 0.00 | 0.00 | 0.00 | 32 | 1003.0 |
| 20260504213012 | 75 | 257 | 10.0 | 19.0 | 0.00 | 0.00 | 0.00 | 29 | 1003.0 |
| 20260504211509 | 74 | 180 | 5.0 | 14.0 | 0.00 | 0.00 | 0.00 | 30 | 1003.1 |
| 20260504210011 | 74 | 254 | 12.0 | 22.0 | 0.00 | 0.00 | 0.00 | 29 | 1003.2 |
| 20260504204510 | 73 | 211 | 7.0 | 16.0 | 0.00 | 0.00 | 0.00 | 33 | 1003.6 |
| 20260504203004 | 74 | 200 | 9.0 | 18.0 | 0.00 | 0.00 | 0.00 | 31 | 1003.8 |
| 20260504201505 | 73 | 289 | 11.0 | 23.0 | 0.00 | 0.00 | 0.00 | 30 | 1004.0 |
| 20260504200002 | 73 | 220 | 14.0 | 22.0 | 0.00 | 0.00 | 0.00 | 31 | 1004.4 |
| 20260504194559 | 73 | 242 | 9.0 | 25.0 | 0.00 | 0.00 | 0.00 | 32 | 1004.5 |
| 20260504193057 | 72 | 203 | 11.0 | 20.0 | 0.00 | 0.00 | 0.00 | 32 | 1004.5 |
| 20260504191608 | 72 | 227 | 9.0 | 20.0 | 0.00 | 0.00 | 0.00 | 33 | 1004.8 |
| 20260504190054 | 72 | 222 | 12.0 | 19.0 | 0.00 | 0.00 | 0.00 | 33 | 1004.9 |
| 20260504184552 | 72 | 244 | 11.0 | 22.0 | 0.00 | 0.00 | 0.00 | 33 | 1004.9 |
| 20260504183049 | 71 | 262 | 12.0 | 25.0 | 0.00 | 0.00 | 0.00 | 34 | 1005.1 |
| 20260504181547 | 71 | 243 | 12.0 | 17.0 | 0.00 | 0.00 | 0.00 | 34 | 1005.1 |
| 20260504180045 | 71 | 236 | 12.0 | 18.0 | 0.00 | 0.00 | 0.00 | 34 | 1005.3 |
| 20260504174542 | 69 | 177 | 5.0 | 18.0 | 0.00 | 0.00 | 0.00 | 36 | 1005.5 |
| 20260504173040 | 70 | 213 | 6.0 | 19.0 | 0.00 | 0.00 | 0.00 | 35 | 1005.7 |
| 20260504171537 | 68 | 225 | 8.0 | 24.0 | 0.00 | 0.00 | 0.00 | 36 | 1005.8 |